Change the Weather History Date:

Sunday, February 24, 2013

  Actual Average Record
Temperature  
Mean Temperature 43 °F -  
Max Temperature 47 °F - - ()
Min Temperature 39 °F - - ()
Degree Days  
Heating Degree Days 22    
Moisture  
Dew Point 38 °F    
Average Humidity 80    
Maximum Humidity 91    
Minimum Humidity 64    
Precipitation  
Precipitation 0.05 in - - ()
Sea Level Pressure  
Sea Level Pressure 30.15 in    
Wind  
Wind Speed 21 mph ()    
Max Wind Speed 41 mph    
Max Gust Speed -    
T = Trace of Precipitation, MM = Missing Value Source: Averaged Metar Reports

Daily Weather History Graph

Daily Weather History Graph

Search for Another Location

Airport or City:

Trip Planner

Search our weather history database for the weather conditions in past years. The results will help you decide how hot, cold, wet, or windy it might be!

Date:

Astronomy

Feb. 24, 2013 Rise Set
Actual Time 7:05 AM PST 5:52 PM PST
Civil Twilight 6:34 AM PST 6:24 PM PST
Nautical Twilight 5:58 AM PST 7:00 PM PST
Astronomical Twilight 5:21 AM PST 7:36 PM PST
Moon 5:09 PM PST (2/24) 6:07 AM PST (2/24)
Length of Visible Light 11h 49m
Length of Day
10h 46m
Waxing Gibbous, 99% of the Moon is Illuminated
Feb 24
Waxing Gibbous
Feb 25
Full
Mar 4
Last Quarter
Mar 11
New
Mar 19
First Quarter

Hourly Weather History & Observations

Time (PST) Temp. Windchill Dew Point Humidity Pressure Visibility Wind Dir Wind Speed Gust Speed Precip Events Conditions
12:00 AM 42.3 °F 31.4 °F 36.7 °F 81% 30.33 in - North 31.1 mph - N/A   Unknown
1:00 AM 42.4 °F 31.4 °F 37.0 °F 81% 30.34 in - North 32.2 mph - N/A   Unknown
2:00 AM 41.5 °F 29.5 °F 36.7 °F 83% 30.35 in - North 36.8 mph - N/A   Unknown
3:00 AM 42.8 °F 31.4 °F 36.3 °F 78% 30.33 in - North 35.7 mph - N/A   Unknown
4:00 AM 42 °F - 36 °F 74% 30.32 in - Calm Calm - -  
4:00 AM 42.1 °F 30.4 °F 36.5 °F 81% 30.32 in - North 35.7 mph - N/A   Unknown
5:00 AM 41.5 °F 28.9 °F 36.1 °F 81% 30.30 in - North 41.4 mph - N/A   Unknown
6:00 AM 40.3 °F 37.1 °F 36.7 °F 87% 30.29 in - North 4.6 mph - N/A   Unknown
7:00 AM 40.1 °F 38.0 °F 37.2 °F 89% 30.28 in - North 3.5 mph - N/A   Unknown
8:00 AM 40.6 °F 37.5 °F 37.9 °F 90% 30.26 in - North 4.6 mph - N/A   Unknown
9:00 AM 41.5 °F 37.8 °F 38.7 °F 89% 30.25 in - North 5.8 mph - N/A   Unknown
10:00 AM 43 °F - 38 °F 78% 30.23 in - Calm Calm - -  
10:00 AM 42.8 °F 38.0 °F 38.5 °F 85% 30.23 in - North 8.1 mph - N/A   Unknown
11:00 AM 43.9 °F 40.5 °F 38.3 °F 81% 30.21 in - North 5.8 mph - N/A   Unknown
12:00 PM 45.3 °F 40.1 °F 37.9 °F 75% 30.19 in - North 10.4 mph - N/A   Unknown
1:00 PM 45.0 °F 40.1 °F 39.9 °F 82% 30.17 in - North 9.2 mph - N/A   Unknown
2:00 PM 46.4 °F 40.1 °F 40.3 °F 79% 30.13 in - North 15.0 mph - N/A   Unknown
3:00 PM 46.2 °F 38.7 °F 39.4 °F 77% 30.09 in - North 19.6 mph - N/A   Unknown
4:00 PM 46 °F - 41 °F 78% 30.07 in - Calm Calm - -  
4:00 PM 46.2 °F 36.5 °F 41.4 °F 83% 30.07 in - North 33.4 mph - N/A   Unknown
5:00 PM 44.8 °F 39.4 °F 40.5 °F 85% 30.04 in - North 10.4 mph - N/A   Unknown
6:00 PM 44.4 °F 40.0 °F 40.5 °F 86% 29.99 in - North 8.1 mph - N/A   Unknown
7:00 PM 43.7 °F 32.7 °F 41.2 °F 91% 29.96 in - North 35.7 mph - N/A   Unknown
8:00 PM 47.5 °F - 37.9 °F 69% 29.92 in - North 32.2 mph - N/A   Unknown
9:00 PM 46.8 °F - 37.8 °F 71% 29.89 in - North 34.5 mph - N/A   Unknown
10:00 PM 47 °F - 39 °F 64% 29.85 in - Calm Calm - -  
10:00 PM 47.5 °F - 38.7 °F 71% 29.85 in - North 36.8 mph - N/A   Unknown
11:00 PM 45.7 °F 35.6 °F 39.7 °F 80% 29.84 in - North 34.5 mph - 0.05 in   Unknown